Location: Newark
(32.9900°N, 111.5400°W)
Time: 07:22:07
(UTC+00:00)

N. Korean satellite - Pass Details

Date: 21 November 2019
Orbit: 456 x 506 km, 97.2° (Epoch: 08 December)

Event Time Altitude Azimuth Distance (km) Brightness Sun altitude
Rises 01:41:38 0° 214° (SSW) 2,547 11.0 -16.7°
Reaches altitude 10° 01:45:15 10° 253° (WSW) 1,687 10.6 -17.4°
Maximum altitude 01:46:10 11° 267° (W) 1,644 10.5 -17.6°
Drops below altitude 10° 01:47:06 10° 282° (WNW) 1,696 10.3 -17.8°
Sets 01:50:47 0° 321° (NW) 2,598 10.6 -18.5°
